Theta_e
304 307 310 317 320 322 321 324 324 325 326 324 325 326 326 326 327 329 336 332 336 337 340 342 338 335 337 334 333 334 327 324 324 323 326 327 320 313 316 322 327 331 332 330 317 312 318 327 331
302 309 314 316 317 316 318 320 321 323 324 324 325 325 325 326 325 328 336 333 330 336 339 342 341 339 338 334 334 332 326 324 324 325 328 328 325 316 318 322 329 333 332 325 313 322 328 332 332
304 311 315 316 318 319 316 316 317 320 322 322 324 323 325 326 332 328 322 330 335 336 339 341 341 340 339 338 336 329 325 325 324 328 328 329 328 321 316 315 320 330 330 325 324 329 330 331 329
309 312 313 316 314 315 316 316 317 320 319 321 322 324 323 323 321 319 319 330 335 337 340 339 342 340 337 337 332 323 325 330 332 331 327 329 328 326 320 315 320 327 328 322 330 332 330 329 326
308 311 313 312 312 313 313 314 316 318 318 320 322 322 321 323 318 316 318 327 335 337 339 339 342 339 337 337 327 326 331 331 332 329 329 330 329 327 324 316 317 325 322 321 324 329 327 324 320
306 310 311 311 311 311 312 312 313 314 315 316 317 319 320 323 315 314 315 320 331 334 338 339 342 340 338 335 329 325 327 331 331 330 330 331 332 331 329 319 318 322 324 328 329 319 319 317 318
306 307 308 309 308 309 310 310 311 311 312 314 313 314 316 320 313 312 313 316 329 334 335 339 339 341 339 335 333 327 326 329 329 330 330 332 331 331 328 327 326 327 327 329 328 315 316 316 319
304 307 307 307 307 307 308 309 308 308 309 309 309 312 313 314 310 311 312 313 320 334 338 339 338 340 339 336 333 331 330 331 330 328 330 331 331 330 329 329 326 327 327 327 329 317 320 320 320
304 304 305 305 305 306 306 306 305 305 305 305 305 305 308 309 307 310 311 312 313 327 334 337 337 339 339 338 334 332 331 332 332 329 330 330 329 329 328 328 327 327 327 327 327 327 326 324 322
304 305 305 306 305 305 304 304 304 304 304 304 304 304 305 304 305 306 307 309 311 313 323 332 335 336 338 339 338 333 332 331 332 330 331 331 330 328 327 327 326 326 326 327 326 326 326 323 324
304 304 304 304 303 303 303 303 303 303 303 303 303 303 303 303 303 303 303 305 308 309 312 313 331 335 333 338 339 336 334 333 333 332 332 331 331 329 327 327 325 326 325 326 326 326 326 323 328
303 303 302 303 302 302 303 303 302 302 302 302 302 302 302 302 302 302 302 303 304 306 309 309 314 326 332 336 338 338 336 335 334 332 332 332 330 328 327 327 324 324 324 326 326 327 326 326 327
303 303 302 302 301 301 301 302 302 302 302 302 302 301 301 301 301 301 302 302 303 303 307 308 306 315 328 331 335 337 337 336 335 333 333 331 330 328 327 325 325 324 324 325 326 326 326 326 326
302 302 302 301 302 302 302 303 302 302 302 302 302 302 301 302 302 302 302 302 302 303 305 304 304 306 316 323 329 335 336 335 335 334 332 331 329 328 327 325 324 324 324 325 325 327 326 326 326
302 302 302 303 302 303 302 302 303 303 303 303 302 302 302 302 302 302 301 302 302 303 303 304 303 304 308 312 323 332 335 335 333 329 331 330 329 327 326 325 324 323 324 326 326 326 329 325 325
302 303 304 304 303 303 302 303 304 304 303 303 303 303 303 303 302 302 302 302 302 303 303 304 302 302 305 312 318 324 330 335 334 332 332 330 328 327 326 325 324 323 324 323 325 327 328 324 324
305 305 304 303 303 303 302 303 303 303 303 303 303 303 303 302 302 302 302 302 302 303 303 304 304 302 304 306 312 319 325 332 333 333 331 329 328 327 325 324 324 324 323 322 324 325 324 324 325
302 302 302 303 303 303 304 303 303 303 303 303 303 303 303 303 303 303 302 302 302 303 303 304 304 303 304 307 311 322 326 331 333 332 330 329 327 325 325 325 323 323 323 321 322 324 324 324 325
301 303 303 303 303 303 303 303 303 303 302 302 302 303 303 303 303 302 302 302 302 303 303 304 305 304 304 308 313 322 328 328 328 329 329 328 325 324 324 321 323 322 322 321 321 321 326 323 323
300 300 301 301 302 302 302 301 302 302 300 299 298 298 299 300 302 303 302 302 302 303 304 304 305 308 305 313 316 322 327 328 326 326 326 327 324 324 323 322 322 322 322 322 320 322 321 323 322
299 299 300 299 298 298 299 300 302 301 300 296 295 295 296 296 298 300 302 302 302 303 304 305 305 313 313 315 320 325 327 326 326 326 327 327 323 323 321 322 322 322 322 320 320 319 321 319 322
299 298 297 296 298 300 303 306 300 297 295 294 293 293 293 294 296 298 300 302 302 303 304 303 310 319 322 316 319 325 327 325 326 325 326 325 324 321 322 321 321 321 320 321 320 320 319 320 319
299 296 296 296 298 299 300 303 297 295 293 292 291 291 292 293 295 297 299 301 302 303 303 302 313 320 323 324 325 326 327 326 325 326 326 326 323 321 316 320 320 320 319 318 319 320 319 318 319
296 296 299 302 302 304 305 304 297 293 292 290 289 287 289 301 298 298 299 301 302 303 302 303 316 321 323 326 326 326 325 326 325 325 325 324 324 323 322 320 321 321 321 320 319 319 320 319 319
297 297 302 303 304 304 303 301 296 291 290 288 286 285 295 302 301 301 302 302 302 303 306 314 318 321 323 325 325 321 321 324 324 324 324 323 323 323 322 321 323 321 322 322 321 321 321 317 319
295 295 297 300 301 302 300 299 298 290 287 285 284 285 292 296 299 302 306 308 310 312 313 315 313 320 322 323 322 320 319 319 320 320 321 320 321 321 320 320 322 322 321 320 320 320 317 311 311
294 294 294 296 297 300 300 296 296 288 286 284 283 284 288 292 295 297 299 303 307 309 309 305 307 317 318 318 318 315 314 318 318 315 316 314 311 313 314 315 316 315 311 312 310 312 309 308 304
293 293 296 297 299 301 300 295 289 286 284 284 283 284 286 289 291 293 295 297 298 300 300 298 311 317 311 312 312 311 311 310 312 309 309 307 306 308 310 312 310 312 308 309 308 307 301 302 301
292 292 293 294 295 299 300 295 286 285 284 283 283 283 284 286 288 290 291 292 294 293 294 298 311 315 305 304 305 303 306 309 311 310 306 306 305 309 311 305 304 306 305 301 302 301 299 299 296
292 291 292 297 295 293 295 295 286 284 283 282 281 281 283 284 285 287 289 289 289 288 291 298 303 305 297 296 297 297 297 304 306 302 302 300 301 300 300 300 300 299 298 297 296 292 288 287 285
Wind_Speed
3 6 4 7 7 8 19 20 17 14 18 16 14 8 9 17 8 3 3 7 7 8 14 20 26 30 32 31 29 27 26 25 24 22 21 20 20 20 20 18 17 15 15 14 15 18 18 16 15
1 1 6 10 9 16 18 19 21 15 18 5 7 12 13 14 14 5 1 13 13 8 11 25 27 32 31 32 30 29 27 26 24 23 22 21 21 21 20 19 20 19 18 14 18 19 17 16 15
3 4 9 5 14 20 20 19 15 17 18 21 16 11 12 7 5 5 12 15 13 9 10 22 27 32 31 30 30 29 28 27 25 24 22 22 22 22 21 20 21 22 21 22 19 17 17 16 15
2 5 8 10 23 20 16 12 10 8 13 12 16 12 16 4 4 9 14 15 10 7 10 19 29 32 33 32 31 30 29 27 26 24 22 23 22 22 22 20 22 22 22 23 22 17 18 17 15
4 8 10 17 23 22 19 11 18 11 13 11 8 17 12 4 5 11 15 15 11 6 11 17 30 28 33 32 31 30 29 28 27 24 23 22 21 22 21 21 22 22 21 22 23 21 19 18 15
9 7 12 17 22 20 14 7 12 15 21 22 14 16 20 6 10 12 15 17 11 7 12 18 28 30 32 33 32 31 30 29 27 25 22 22 21 21 20 20 22 22 21 20 19 20 20 18 15
12 12 19 24 24 22 18 5 8 17 17 15 13 10 11 11 11 14 14 15 10 5 7 16 22 29 30 34 32 31 31 30 28 27 25 24 24 23 21 21 21 20 20 20 19 20 19 17 15
10 7 20 19 18 24 9 5 8 12 17 15 11 7 11 16 17 17 16 15 13 9 11 16 21 30 32 34 34 33 32 30 29 29 27 26 25 23 23 22 21 21 20 19 18 18 17 16 16
4 7 14 20 20 21 19 9 14 13 17 22 24 26 24 23 25 21 19 17 16 12 15 18 21 27 33 35 36 35 33 32 31 29 27 26 25 25 24 23 21 21 20 18 18 16 17 16 16
7 10 15 14 12 15 17 18 19 20 22 25 24 24 25 25 22 21 23 21 19 18 16 19 19 24 28 38 35 38 36 35 33 32 31 29 26 25 24 24 22 22 20 20 17 17 17 17 15
6 12 15 18 17 18 20 22 22 21 23 25 27 23 20 20 21 23 26 24 21 20 22 23 20 23 17 30 36 38 39 38 37 35 35 32 29 25 26 25 24 22 21 21 19 19 18 18 14
10 16 19 20 21 21 20 24 24 26 31 27 29 29 30 30 28 24 24 27 22 22 21 23 28 21 19 16 35 40 41 41 40 39 37 35 30 29 29 27 27 24 24 19 21 20 19 16 15
16 18 23 22 22 24 26 25 27 30 31 31 32 33 34 32 29 26 25 25 25 22 21 26 23 28 24 16 21 39 44 44 42 41 37 35 32 32 29 28 30 26 24 20 21 19 20 18 17
13 19 21 22 25 27 25 26 28 28 28 28 30 32 30 30 27 26 24 24 23 20 19 27 22 26 29 24 18 28 42 41 43 37 36 34 33 30 33 30 29 29 24 22 22 23 20 18 16
13 18 20 21 24 17 21 18 21 28 22 21 21 24 26 27 25 25 23 23 21 21 20 23 20 20 28 29 23 18 38 45 38 45 38 36 32 29 34 32 29 28 27 25 23 21 18 19 15
18 18 15 6 8 15 13 21 21 19 15 19 21 22 24 23 24 22 19 18 19 19 19 18 19 16 22 29 25 24 23 41 44 36 36 36 33 30 33 33 31 28 29 26 27 21 19 21 15
10 10 16 22 17 17 11 16 15 18 24 28 28 29 26 25 21 19 18 17 18 18 18 17 15 17 17 19 21 23 26 46 42 42 37 34 32 30 33 33 31 29 30 29 27 26 24 22 17
17 20 21 22 19 16 16 22 22 22 23 24 22 22 23 23 22 17 17 19 19 18 18 17 17 16 16 17 21 22 14 25 37 41 37 37 34 30 30 32 31 29 30 29 28 27 27 22 17
15 19 24 24 23 14 15 16 17 15 14 16 20 19 17 20 21 22 21 19 19 17 17 17 16 16 20 18 16 19 16 26 25 28 34 34 29 26 30 30 31 29 30 31 30 30 21 26 24
22 24 23 24 16 8 14 19 17 2 4 14 18 18 18 19 18 17 18 18 17 15 16 16 17 19 22 17 16 18 25 21 24 31 32 31 26 19 26 29 31 30 31 31 30 29 29 27 25
21 23 17 20 23 25 19 20 4 5 10 22 22 21 20 20 18 17 15 15 16 15 14 15 17 17 20 14 13 21 26 27 23 29 32 32 27 24 22 31 30 28 30 30 29 27 27 28 27
20 17 25 25 13 5 3 1 13 13 19 21 28 30 29 25 19 17 17 13 15 14 13 16 13 14 16 19 15 24 25 22 25 24 27 33 30 29 25 25 25 27 26 29 30 28 24 23 27
16 27 23 21 14 9 14 5 9 16 26 29 30 39 35 29 20 18 16 13 13 12 14 13 15 14 16 16 12 24 26 22 22 21 32 39 33 32 29 28 23 22 21 20 23 25 24 22 23
26 21 13 6 5 3 11 4 12 14 21 27 33 45 48 17 7 11 13 13 14 12 12 9 11 12 16 18 16 17 17 18 17 24 30 33 32 36 31 30 26 23 23 22 20 21 23 23 27
20 19 4 2 4 5 10 7 8 21 21 22 26 41 37 23 10 6 6 6 5 5 4 9 13 23 22 23 16 15 15 7 18 26 21 26 32 28 33 28 28 29 28 23 25 26 28 24 28
15 11 5 6 5 5 9 7 4 22 26 31 29 33 41 39 33 25 16 9 8 7 11 15 23 25 21 24 21 14 17 14 12 6 18 23 25 20 22 25 26 23 24 23 23 21 17 9 7
11 10 10 5 7 3 3 7 7 28 25 33 40 45 43 38 33 28 22 18 16 18 21 27 34 37 31 29 26 25 25 20 16 22 18 18 25 20 20 15 12 12 16 12 12 10 11 8 11
8 10 4 4 7 5 5 5 9 25 24 26 29 37 40 39 37 31 29 21 24 26 27 36 41 38 38 38 36 35 34 34 29 31 30 31 33 31 26 22 23 19 19 20 17 18 19 18 18
13 7 5 2 5 5 6 3 7 16 18 19 23 33 35 36 35 33 27 28 28 29 36 46 47 41 44 46 46 48 47 43 37 35 36 35 34 32 27 29 31 26 22 25 24 23 22 22 22
20 12 5 4 5 3 4 4 11 16 17 21 25 30 33 35 35 33 29 29 30 29 42 52 49 46 44 46 47 50 51 48 43 42 39 37 38 38 37 35 35 33 32 30 29 28 26 24 24
Wind_Direction
321 301 227 192 229 232 251 237 253 244 252 262 251 250 248 244 227 247 95 24 350 320 217 236 211 204 199 196 195 194 193 190 191 188 189 188 181 176 172 163 154 155 156 169 172 155 148 154 159
27 274 192 235 240 239 246 237 247 240 245 229 258 241 252 245 236 259 339 325 330 318 218 235 217 203 199 200 199 198 197 193 194 191 192 190 188 184 179 171 164 163 170 171 162 156 166 174 169
345 203 227 226 237 246 264 268 289 226 235 259 240 247 269 258 84 35 341 332 331 319 216 232 223 204 200 201 200 201 199 196 195 195 195 192 193 190 187 184 178 176 180 163 160 176 183 182 178
262 209 250 245 251 259 275 299 321 295 246 262 265 266 240 93 40 351 338 337 336 314 224 237 223 210 203 203 203 202 200 195 193 197 196 194 197 199 196 188 181 179 183 171 172 181 191 189 187
266 248 247 249 256 267 274 288 288 272 260 251 220 249 245 130 26 346 346 346 337 314 250 249 222 217 208 204 204 201 198 195 198 198 199 201 201 194 195 189 185 187 190 184 180 192 195 193 189
267 272 252 255 259 265 272 299 300 283 267 261 260 273 255 149 11 345 341 343 333 309 236 248 228 220 212 209 206 203 200 199 201 200 197 198 197 196 191 191 186 185 185 182 185 188 191 189 192
256 262 260 273 275 273 282 286 269 274 270 263 304 278 258 230 355 338 337 336 314 256 262 241 238 219 217 214 209 205 203 203 203 202 200 201 203 200 196 191 184 184 191 185 188 188 192 191 191
266 277 266 267 272 268 290 328 301 280 276 276 290 259 251 263 331 323 323 324 320 270 241 231 237 229 221 215 212 208 202 204 206 206 203 205 202 203 196 192 188 186 194 194 194 191 193 195 192
255 252 260 265 269 275 274 276 274 271 272 275 273 272 276 287 306 309 310 310 315 275 254 237 231 222 222 216 216 213 208 206 207 206 204 204 202 203 202 195 189 192 195 201 202 195 194 199 198
236 248 258 282 300 294 283 275 276 275 272 273 272 269 271 279 279 294 294 296 301 306 272 267 240 238 218 218 217 212 213 210 208 205 202 200 203 207 208 198 194 195 195 202 209 204 203 201 207
231 250 276 283 278 274 275 275 274 274 271 270 275 284 285 280 281 285 285 282 287 296 291 298 261 239 246 218 212 214 212 212 207 204 202 200 205 210 211 206 199 196 198 205 205 208 210 205 201
270 259 273 283 285 278 274 281 274 267 271 276 275 276 278 278 278 277 279 280 281 286 289 290 289 275 257 234 218 221 213 213 206 205 202 197 201 210 212 211 202 198 204 203 209 213 214 209 208
272 277 282 284 284 277 279 271 274 274 279 274 273 273 274 276 275 273 273 275 279 282 284 286 290 287 253 241 223 220 223 215 210 204 199 196 202 210 213 211 208 199 201 204 211 218 220 208 208
302 300 292 286 281 279 279 278 277 272 267 270 267 269 271 273 274 270 266 271 276 277 280 291 286 291 284 268 251 202 228 223 205 198 195 199 209 212 214 214 210 202 197 210 210 214 213 213 213
296 290 288 278 272 267 284 279 260 266 267 263 264 268 271 269 270 269 262 264 271 276 281 289 284 278 281 284 267 231 220 223 197 213 206 203 209 212 211 217 218 212 200 212 214 210 207 225 221
272 270 280 264 264 296 247 279 285 286 279 283 283 275 274 273 267 268 266 262 271 276 280 287 282 268 277 289 278 268 257 213 225 198 209 209 211 214 214 217 222 215 208 213 214 215 210 222 223
282 282 302 297 296 290 252 284 292 299 294 291 281 274 274 272 271 265 259 269 275 273 276 281 282 260 252 265 277 283 269 223 229 212 210 211 213 217 219 221 223 219 218 218 218 222 228 229 226
310 301 298 296 306 291 275 277 285 300 292 291 290 284 280 272 265 253 262 277 272 270 270 275 278 257 235 247 267 270 276 211 218 213 212 207 207 212 215 224 226 222 218 226 220 222 227 228 230
302 290 286 287 294 289 273 277 290 327 12 4 353 334 306 283 272 261 267 272 268 266 267 273 276 262 228 226 262 259 247 225 226 213 200 203 202 203 221 225 228 225 226 229 224 223 225 236 232
316 305 295 293 320 313 291 288 297 95 43 24 359 346 332 317 314 272 267 269 266 263 261 265 276 265 230 215 261 265 235 235 235 238 238 207 210 211 222 229 230 230 230 233 234 228 231 236 241
323 305 316 317 317 304 285 278 207 4 27 359 348 338 329 315 301 289 281 272 264 258 255 266 270 257 227 225 255 244 231 228 229 204 206 236 218 223 227 233 232 234 234 232 238 236 238 238 246
315 334 311 301 299 271 4 49 40 12 358 351 348 341 328 313 295 278 271 265 258 253 254 262 250 235 223 215 249 242 219 212 218 221 223 238 231 219 227 239 239 241 242 239 240 245 244 247 251
307 320 306 288 264 265 256 231 19 16 358 350 346 339 328 309 280 270 266 259 250 248 252 256 223 240 213 213 215 217 212 211 233 239 232 229 215 221 213 241 237 237 241 243 238 247 250 250 253
337 322 297 279 185 167 28 252 38 15 354 344 340 337 331 346 283 272 268 256 241 235 236 238 236 223 190 185 183 192 209 210 219 233 227 229 232 223 224 235 237 242 250 246 242 239 246 255 257
346 349 345 65 42 34 359 67 66 12 358 350 337 330 342 13 12 328 294 251 237 257 272 198 200 136 136 167 151 108 95 167 204 204 202 204 196 210 207 219 224 222 226 231 239 239 243 254 249
346 1 15 344 3 343 31 10 88 12 355 349 341 345 6 8 19 25 30 52 112 142 155 164 134 139 148 140 138 132 114 88 108 116 192 168 174 180 188 191 209 215 212 218 217 220 218 187 190
334 5 312 289 221 264 28 8 148 349 351 350 355 359 359 3 14 29 46 74 104 120 127 129 120 115 111 115 116 112 109 109 117 127 136 126 116 133 136 145 139 152 124 117 109 106 85 68 83
11 1 16 334 352 21 68 56 340 346 343 345 351 350 352 0 14 29 43 77 96 103 123 114 112 113 111 112 110 105 102 102 100 108 110 108 107 108 113 108 110 98 105 99 100 93 101 100 90
14 21 354 261 14 336 329 47 5 349 346 344 342 347 353 360 11 27 45 71 90 98 100 106 111 117 110 110 114 113 110 106 109 107 108 106 106 101 101 108 107 107 105 98 98 96 88 81 78
37 14 358 342 5 18 272 63 31 6 354 353 348 353 358 7 17 32 50 69 83 79 98 105 108 115 111 112 111 107 107 109 110 110 108 107 104 103 103 100 98 97 92 88 85 85 85 79 72